Location: Brienzwiler
(46.7508°N, 8.1014°E)
Time: 17:02:13
(UTC+00:00)

USA 215 - Pass Details

Date: 05 July 2020
Orbit: 1102 x 1106 km, 123.0° (Epoch: 08 August)

Event Time Altitude Azimuth Distance (km) Brightness Sun altitude
Rises 22:41:11 0° 55° (NE) 3,926 6.5 -19.6°
Reaches altitude 10° 22:43:43 10° 51° (NE) 2,966 5.9 -19.7°
Maximum altitude 22:50:02 54° 336° (NNW) 1,320 4.0 -19.9°
Drops below altitude 10° 22:56:21 10° 262° (W) 2,958 5.5 -20.1°
Sets 22:58:52 0° 258° (WSW) 3,915 6.1 -20.2°
